THOR ABLESTAR DEB, 147

Orbit data source: Space-Track

THOR ABLESTAR DEB, 147 is space debris in LEO originally from a launch on Thu, 29 Jun 1961 UTC launched from the Air Force Eastern Test Range (AFETR). Debris objects in space refer to the collection of defunct objects orbiting the Earth. Examples of debris include non-operational satellites, rocket bodies, and fragments generated from explosions, collisions, or faulty payload assembly.

Loading next visibility...
Identifier
147, 1961-015AH
Orbit
LEO
Country
Flag of USUS
Related business
Manufacturer
Unknown
Mission
Spacecraft
Bus & Motor
Unknown
Mass
Unknown
Launch date (UTC)
1961-06-29 (65 years ago)
Launch vehicle
Unknown
Launch site
Air Force Eastern Test Range (AFETR)
Object type
Payload
Rocket body
Debris
Shape & HBR
Unknown shape, 0.2 m
Radar Cross Section
Medium (>0.1 m² and <1 m²)

Expand to show TLE details & history
Last TLE update: 3 days ago

TLE from 3 days ago
0 THOR ABLESTAR DEB
1   147U 61015AH  26171.48005731  .00000544  00000-0  26930-3 0  9996
2   147  66.6175 352.0800 0043828  73.0048 287.5843 14.24285756334933
Epoch: 2026-06-20T11:31Z
TLE epoch observation values (Epoch: 2026-06-20T11:31:16.951Z)
Latitude
0.00002°
Longitude
-89.4347°
Altitude
803.596 km
Speed
7.457 km/s
True Right ascension
23h 28m 19s
True Declination
0° 00' 00"
Sunlit
Object was in daylight at epoch
Visualization orbit readout
Latitude
Unknown
Longitude
Unknown
Altitude
Unknown
Speed
Unknown
Apparent Right ascension
Unknown
Apparent Declination
Unknown
Sunlit
N/A
Visualization observer readout
Local Sidereal Time
10:58:58
Azimuth
Unknown
Elevation
Unknown
Doppler factor
Unknown
Orbital elements
Apogee altitude
840.785 km
Perigee altitude
777.783 km
Semi-major axis
7,187.421 km
Eccentricity
0.00438
Inclination
66.6175°
RAAN
352.08°
Arg. of periapsis
73.0048°
True anomaly
287.10475°
Mean anomaly
287.5843°
Eccentric anomaly
287.3446°
Mean motion
3.56191 °/min
Orbital period
101.07 mins
BSTAR
0.0002693
Loading maneuver chart data...
Computing Atmospheric mass density...

Documentation

Showing up to 5 results
|